Flag for Australia Weather past 2 weeks in Port Hedland, Western Australia, Australia

Now
95 °F

Sunny.


Feels Like: 95 °F
Forecast: 83 / 99 °F
Wind: 14 mph from North

Location: Port Hedland Pardoo

Current Time: Dec 27, 2014 at 5:35:26 PM

Latest Report: Dec 27, 2014 at 5:00 PM


Visibility: N/A

Pressure: 29.68 "Hg

Humidity: 32%

Dew point: 61 °F

Location of Port HedlandLocation

Historic Weather in Port Hedland — Graph

°F

Port Hedland temperature yesterday

Maximum temperature yesterday: 106 °F (at 12:00 PM)
Minimum temperature yesterday: 84 °F (at 9:00 PM)
Average temperature yesterday: 94 °F

Past Weeks' High & Low Weather Summary

 TemperatureHumidityPressure
High108 °F (Dec 25, 12:00 PM)94% (Dec 19, 5:00 AM)29.86 "Hg (Dec 19, 5:00 AM)
Low75 °F (Dec 19, 5:00 AM)6% (Dec 27, 1:30 PM)29.65 "Hg (Dec 17, 1:00 PM)
Average87 °F60%29.74 "Hg
* Reported Dec 12 4:00 PM — Dec 27 4:00 PM, Port Hedland, Weather by CustomWeather, © 2014

Note: Actual official high and low records may vary slightly from our data, if they occured in-between our weather recording intervals... More about our weather records

Advertising

Port Hedland weather history for previous 24 hours

 ConditionsComfort  
Time TempWeatherWind HumidityBarometerVisibility
4:00 PM
Dec 27
97 °FSunny.17 mph30%29.68 "HgN/A
3:30 PM97 °FSunny.16 mph28%29.68 "HgN/A
3:00 PM100 °FSunny.18 mph18%29.68 "HgN/A
2:30 PM102 °FSunny.12 mph17%29.68 "HgN/A
2:00 PM108 °FSunny.12 mph6%29.68 "HgN/A
1:30 PM108 °FSunny.14 mph6%29.71 "HgN/A
1:00 PM106 °FSunny.12 mph8%29.71 "HgN/A
12:30 PM106 °FSunny.12 mph8%29.74 "HgN/A
12:00 PM106 °FSunny.14 mph9%29.74 "HgN/A
11:30 AM104 °FSunny.13 mph9%29.77 "HgN/A
11:00 AM104 °FSunny.15 mph9%29.77 "HgN/A
10:30 AM100 °FSunny.17 mph10%29.80 "HgN/A
10:00 AM100 °FSunny.18 mph10%29.80 "HgN/A
9:30 AM99 °FSunny.18 mph12%29.80 "HgN/A
9:00 AM97 °FSunny.20 mph13%29.80 "HgN/A
8:30 AM95 °FSunny.21 mph13%29.80 "HgN/A
8:00 AM93 °FSunny.20 mph14%29.83 "HgN/A
7:30 AM91 °FSunny.15 mph14%29.80 "HgN/A
7:00 AM90 °FSunny.9 mph16%29.80 "HgN/A
6:30 AM86 °FSunny.6 mph20%29.80 "HgN/A
6:00 AM82 °FSunny.8 mph26%29.80 "HgN/A
5:30 AM79 °FSunny.7 mph42%29.77 "HgN/A
5:00 AM77 °FSunny.6 mph57%29.77 "HgN/A
4:30 AM77 °FSunny.6 mph61%29.74 "HgN/A
4:00 AM79 °FClear.5 mph58%29.74 "HgN/A
3:30 AM79 °FClear.5 mph58%29.74 "HgN/A
3:00 AM81 °FClear.6 mph54%29.74 "HgN/A
2:30 AM81 °FClear.8 mph54%29.74 "HgN/A
2:00 AM82 °FClear.8 mph51%29.71 "HgN/A
1:30 AM82 °FClear.8 mph51%29.71 "HgN/A
1:00 AM82 °FClear.6 mph51%29.71 "HgN/A
12:00 AM82 °FClear.8 mph51%29.71 "HgN/A
11:00 PM
Dec 26
84 °FClear.7 mph51%29.74 "HgN/A
10:00 PM84 °FClear.6 mph55%29.74 "HgN/A
9:30 PM86 °FClear.2 mph55%29.71 "HgN/A
9:00 PM84 °FClear.6 mph58%29.71 "HgN/A
8:30 PM86 °FClear.6 mph55%29.71 "HgN/A
8:00 PM86 °FClear.7 mph55%29.68 "HgN/A
7:30 PM88 °FClear.6 mph49%29.68 "HgN/A
7:00 PM90 °FClear.6 mph46%29.68 "HgN/A
6:30 PM91 °FClear.8 mph41%29.68 "HgN/A
6:00 PM93 °FClear.10 mph39%29.65 "HgN/A
5:30 PM95 °FSunny.10 mph32%29.65 "HgN/A
5:00 PM97 °FSunny.13 mph28%29.65 "HgN/A
Weather by CustomWeather, © 2014

See weather overviewHow to use our weather pages